Regional Weather Roundup
Issued by NWS Sioux Falls, SD

Home | Current Version | Previous Version | Text Only | Print | Product List | Glossary On
Versions: 1 2 3 4 5 6 7 8 9 10 11 12 13 14 15 16 17 18 19 20 21 22 23 24 25 26 27 28 29 30 31 32 33 34 35 36 37 38 39 40 41 42 43 44 45 46 47 48 49 50
000
ASUS43 KFSD 292002
RWRFSD

WEATHER ROUNDUP FOR SE SOUTH DAKOTA/SW MINNESOTA/NW IOWA
NATIONAL WEATHER SERVICE SIOUX FALLS SD
300 PM CDT TUE JUL 29 2014

NOTE: "FAIR" INDICATES FEW OR NO CLOUDS BELOW 12,000 FEET WITH NO
SIGNIFICANT WEATHER AND OR OBSTRUCTIONS TO VISIBILITY.


SDZ038>040-050-052>070-292100-
SOUTHEAST SOUTH DAKOTA

CITY           SKY/WX    TMP DP  RH WIND       PRES   REMARKS
CHAMBERLAIN    PTSUNNY   78  51  38 N8        30.19S
HURON          MOSUNNY   77  49  37 VRB3      30.17F
MADISON        FAIR      72  50  46 CALM      30.20S
MITCHELL       MOSUNNY   77  54  44 NE5       30.18F
SIOUX FALLS    PTSUNNY   75  53  46 N8        30.19S
WINNER         FAIR      81  47  30 N6        30.20S
YANKTON        PTSUNNY   73  52  46 N6        30.19F
$$

MNZ071-072-080-081-089-090-097-098-292100-
SOUTHWEST MINNESOTA

CITY           SKY/WX    TMP DP  RH WIND       PRES   REMARKS
FAIRMONT       PTSUNNY   75  48  38 NW12      30.15F
JACKSON        MOSUNNY   73  52  46 NW6       30.18S
LUVERNE        PTSUNNY   73  50  43 N6        30.19S
MARSHALL       SUNNY     73  52  46 NW10      30.16S
MONTEVIDEO     MOSUNNY   77  55  47 N9        30.16S
PIPESTONE      PTSUNNY   72  52  49 N5        30.19S
REDWOOD FALLS  SUNNY     77  52  41 N9        30.14F
TRACY          MOSUNNY   75  54  47 NW6       30.17S
WINDOM         SUNNY     73  52  46 W6        30.17S
WORTHINGTON    MOSUNNY   72  52  49 NW7       30.19F
$$

IAZ001>003-012>014-020>022-031-032-NEZ013-014-SDZ071-292100-
NORTHWEST IOWA

CITY           SKY/WX    TMP DP  RH WIND       PRES   REMARKS
CHEROKEE       PTSUNNY   73  54  51 NW8       30.17F
DENISON        PTSUNNY   73  55  53 NW10G16   30.16F
ESTHERVILLE    MOSUNNY   73  54  51 NW9       30.16F
LE MARS        PTSUNNY   72  54  53 NW5G12    30.19F
ORANGE CITY    MOSUNNY   73  52  46 NW5       30.19S
SHELDON        CLOUDY    72  54  53 NW6       30.18S
SIOUX CITY     PTSUNNY   76  54  46 N8        30.18F
SPENCER        MOSUNNY   73  53  49 NW9       30.17F
STORM LAKE     MOSUNNY   73  57  56 NW8       30.19S
$$

ABBREVIATIONS USED IN REMARKS
   TC - TEMPERATURE IN CELSIUS
  WCI - WIND CHILL INDEX
   HX - HEAT INDEX
  VSB - VISIBILITY




USA.gov is the U.S. government's official web portal to all federal, state and local government web resources and services.